Wetterdaten: Freitag, 19.09.2014
Datum Zeit Temperatur Luftfeuchte Luftdruck Regen Wind Richtung Richtung Taupunkt Windchill Windben
19.09.2014 00:00 12,8 C 95 % 1018,2 hPa 0,0 l/m 0,0 km/h (0 Bft) S-SO 157 12,0 C 22,8 C 0,0 km/h (0 Bft)
19.09.2014 00:10 12,9 C 95 % 1018,0 hPa 0,0 l/m 0,0 km/h (0 Bft) S-SO 157 12,1 C 22,8 C 0,0 km/h (0 Bft)
19.09.2014 00:20 12,9 C 95 % 1018,0 hPa 0,0 l/m 0,0 km/h (0 Bft) S-SO 157 12,1 C 22,8 C 0,0 km/h (0 Bft)
19.09.2014 00:30 12,9 C 95 % 1017,9 hPa 0,0 l/m 0,0 km/h (0 Bft) S-SO 157 12,1 C 22,8 C 0,0 km/h (0 Bft)
19.09.2014 00:40 12,7 C 95 % 1017,9 hPa 0,0 l/m 0,0 km/h (0 Bft) S-SO 157 11,9 C 22,8 C 0,0 km/h (0 Bft)
19.09.2014 00:50 12,7 C 95 % 1017,7 hPa 0,0 l/m 0,0 km/h (0 Bft) S-SO 157 11,9 C 22,8 C 0,0 km/h (0 Bft)
19.09.2014 01:00 12,7 C 95 % 1017,7 hPa 0,0 l/m 0,0 km/h (0 Bft) S-SO 157 11,9 C 22,8 C 0,0 km/h (0 Bft)
19.09.2014 01:10 12,7 C 95 % 1017,8 hPa 0,0 l/m 0,0 km/h (0 Bft) S-SO 157 11,9 C 22,8 C 0,0 km/h (0 Bft)
19.09.2014 01:20 12,5 C 95 % 1017,8 hPa 0,0 l/m 0,0 km/h (0 Bft) S-SO 157 11,7 C 22,8 C 0,0 km/h (0 Bft)
19.09.2014 01:30 12,4 C 95 % 1017,7 hPa 0,0 l/m 0,0 km/h (0 Bft) S-SO 157 11,6 C 22,8 C 0,0 km/h (0 Bft)
19.09.2014 01:40 12,1 C 95 % 1017,7 hPa 0,0 l/m 0,0 km/h (0 Bft) S-SO 157 11,3 C 22,8 C 0,0 km/h (0 Bft)
19.09.2014 01:50 11,6 C 95 % 1017,7 hPa 0,0 l/m 0,0 km/h (0 Bft) S-SO 157 10,8 C 22,8 C 0,0 km/h (0 Bft)
19.09.2014 02:00 11,6 C 95 % 1017,7 hPa 0,0 l/m 0,0 km/h (0 Bft) S-SO 157 10,8 C 22,8 C 0,0 km/h (0 Bft)
19.09.2014 02:10 11,9 C 95 % 1017,6 hPa 0,0 l/m 0,0 km/h (0 Bft) S-SO 157 11,1 C 22,8 C 0,0 km/h (0 Bft)
19.09.2014 02:20 11,4 C 95 % 1017,6 hPa 0,0 l/m 0,0 km/h (0 Bft) S-SO 157 10,6 C 22,8 C 0,0 km/h (0 Bft)
19.09.2014 02:30 11,1 C 95 % 1017,6 hPa 0,0 l/m 0,0 km/h (0 Bft) S-SO 157 10,3 C 22,8 C 0,0 km/h (0 Bft)
19.09.2014 02:40 11,4 C 95 % 1017,6 hPa 0,0 l/m 0,0 km/h (0 Bft) S-SO 157 10,6 C 22,8 C 0,0 km/h (0 Bft)
19.09.2014 02:50 11,3 C 95 % 1017,5 hPa 0,0 l/m 0,0 km/h (0 Bft) S-SO 157 10,5 C 22,8 C 0,0 km/h (0 Bft)
19.09.2014 03:00 11,2 C 95 % 1017,5 hPa 0,0 l/m 0,0 km/h (0 Bft) S-SO 157 10,4 C 22,8 C 0,0 km/h (0 Bft)
19.09.2014 03:10 11,2 C 95 % 1017,6 hPa 0,0 l/m 0,0 km/h (0 Bft) S-SO 157 10,4 C 22,8 C 0,0 km/h (0 Bft)
19.09.2014 03:20 11,4 C 95 % 1017,6 hPa 0,0 l/m 0,0 km/h (0 Bft) S-SO 157 10,6 C 22,8 C 0,0 km/h (0 Bft)
19.09.2014 03:30 11,3 C 95 % 1017,4 hPa 0,0 l/m 0,0 km/h (0 Bft) S-SO 157 10,5 C 22,8 C 0,0 km/h (0 Bft)
19.09.2014 03:40 11,4 C 95 % 1017,4 hPa 0,0 l/m 0,0 km/h (0 Bft) S-SO 157 10,6 C 22,8 C 0,0 km/h (0 Bft)
19.09.2014 03:50 10,9 C 96 % 1017,4 hPa 0,0 l/m 0,0 km/h (0 Bft) S-SO 157 10,3 C 22,8 C 0,0 km/h (0 Bft)
19.09.2014 03:58 11,1 C 95 % 1017,4 hPa 0,0 l/m 0,0 km/h (0 Bft) S-SO 157 10,3 C 22,8 C 0,0 km/h (0 Bft)
19.09.2014 04:00 11,1 C 95 % 1017,4 hPa 0,0 l/m 0,0 km/h (0 Bft) S-SO 157 10,3 C 22,8 C 0,0 km/h (0 Bft)
19.09.2014 04:10 10,9 C 96 % 1017,2 hPa 0,0 l/m 0,0 km/h (0 Bft) S-SO 157 10,3 C 22,8 C 0,0 km/h (0 Bft)
19.09.2014 04:20 10,6 C 96 % 1017,2 hPa 0,0 l/m 0,0 km/h (0 Bft) S-SO 157 10,0 C 22,8 C 0,0 km/h (0 Bft)
19.09.2014 04:30 10,4 C 96 % 1017,4 hPa 0,0 l/m 0,0 km/h (0 Bft) S-SO 157 9,8 C 22,8 C 0,0 km/h (0 Bft)
19.09.2014 04:40 10,6 C 96 % 1017,4 hPa 0,0 l/m 0,0 km/h (0 Bft) S-SO 157 10,0 C 22,8 C 0,0 km/h (0 Bft)
19.09.2014 04:50 10,4 C 96 % 1017,6 hPa 0,0 l/m 0,0 km/h (0 Bft) S-SO 157 9,8 C 22,8 C 0,0 km/h (0 Bft)
19.09.2014 05:00 10,3 C 95 % 1017,6 hPa 0,0 l/m 0,0 km/h (0 Bft) S-SO 157 9,5 C 22,8 C 0,0 km/h (0 Bft)
19.09.2014 05:10 10,5 C 96 % 1017,5 hPa 0,0 l/m 0,0 km/h (0 Bft) S-SO 157 9,9 C 22,8 C 0,0 km/h (0 Bft)
19.09.2014 05:20 10,5 C 96 % 1017,5 hPa 0,0 l/m 0,0 km/h (0 Bft) S-SO 157 9,9 C 22,8 C 0,0 km/h (0 Bft)
19.09.2014 05:30 11,0 C 95 % 1017,6 hPa 0,0 l/m 0,0 km/h (0 Bft) S-SO 157 10,2 C 22,8 C 0,0 km/h (0 Bft)
19.09.2014 05:40 10,5 C 96 % 1017,6 hPa 0,0 l/m 0,0 km/h (0 Bft) S-SO 157 9,9 C 22,8 C 0,0 km/h (0 Bft)
19.09.2014 05:50 10,4 C 96 % 1017,5 hPa 0,0 l/m 0,0 km/h (0 Bft) S-SO 157 9,8 C 22,8 C 0,0 km/h (0 Bft)
19.09.2014 06:00 10,4 C 96 % 1017,5 hPa 0,0 l/m 0,0 km/h (0 Bft) S-SO 157 9,8 C 22,8 C 0,0 km/h (0 Bft)
19.09.2014 06:10 10,2 C 96 % 1017,5 hPa 0,0 l/m 0,0 km/h (0 Bft) S-SO 157 9,6 C 22,8 C 0,0 km/h (0 Bft)
19.09.2014 06:20 10,5 C 96 % 1017,5 hPa 0,0 l/m 0,0 km/h (0 Bft) S-SO 157 9,9 C 22,8 C 0,0 km/h (0 Bft)
19.09.2014 06:30 10,7 C 96 % 1017,4 hPa 0,0 l/m 0,0 km/h (0 Bft) S-SO 157 10,1 C 22,8 C 0,0 km/h (0 Bft)
19.09.2014 06:40 10,9 C 96 % 1017,4 hPa 0,0 l/m 0,0 km/h (0 Bft) S-SO 157 10,3 C 22,8 C 0,0 km/h (0 Bft)
19.09.2014 06:50 10,8 C 96 % 1017,4 hPa 0,0 l/m 0,0 km/h (0 Bft) S-SO 157 10,2 C 22,8 C 0,0 km/h (0 Bft)
19.09.2014 06:58 10,8 C 96 % 1017,4 hPa 0,0 l/m 0,0 km/h (0 Bft) S-SO 157 10,2 C 22,8 C 0,0 km/h (0 Bft)
19.09.2014 07:00 10,8 C 96 % 1017,4 hPa 0,0 l/m 0,0 km/h (0 Bft) S-SO 157 10,2 C 22,8 C 0,0 km/h (0 Bft)
19.09.2014 07:10 10,9 C 96 % 1017,7 hPa 0,0 l/m 0,0 km/h (0 Bft) S-SO 157 10,3 C 22,8 C 0,0 km/h (0 Bft)
19.09.2014 07:20 10,6 C 96 % 1017,7 hPa 0,0 l/m 0,0 km/h (0 Bft) S-SO 157 10,0 C 22,8 C 0,0 km/h (0 Bft)
19.09.2014 07:30 10,5 C 96 % 1018,2 hPa 0,0 l/m 0,0 km/h (0 Bft) S-SO 157 9,9 C 22,8 C 0,0 km/h (0 Bft)
19.09.2014 07:40 11,1 C 95 % 1018,2 hPa 0,0 l/m 0,0 km/h (0 Bft) S-SO 157 10,3 C 22,8 C 0,0 km/h (0 Bft)
19.09.2014 07:50 11,6 C 96 % 1018,5 hPa 0,0 l/m 0,0 km/h (0 Bft) S-SO 157 11,0 C 22,8 C 0,0 km/h (0 Bft)
19.09.2014 08:00 11,7 C 96 % 1018,5 hPa 0,0 l/m 0,0 km/h (0 Bft) S-SO 157 11,1 C 22,8 C 0,0 km/h (0 Bft)
19.09.2014 08:10 12,0 C 95 % 1018,5 hPa 0,0 l/m 0,0 km/h (0 Bft) S-SO 157 11,2 C 22,8 C 0,0 km/h (0 Bft)
19.09.2014 08:20 12,3 C 95 % 1018,5 hPa 0,0 l/m 0,0 km/h (0 Bft) S-SO 157 11,5 C 22,8 C 0,0 km/h (0 Bft)
19.09.2014 08:30 12,5 C 95 % 1018,8 hPa 0,0 l/m 0,0 km/h (0 Bft) S-SO 157 11,7 C 22,8 C 0,0 km/h (0 Bft)
19.09.2014 08:40 12,7 C 96 % 1018,8 hPa 0,0 l/m 0,0 km/h (0 Bft) S-SO 157 12,1 C 22,8 C 0,0 km/h (0 Bft)
19.09.2014 08:50 13,6 C 95 % 1018,6 hPa 0,0 l/m 0,0 km/h (0 Bft) S-SO 157 12,8 C 22,8 C 0,0 km/h (0 Bft)
19.09.2014 09:00 13,9 C 95 % 1018,6 hPa 0,0 l/m 0,0 km/h (0 Bft) S-SO 157 13,1 C 22,8 C 0,0 km/h (0 Bft)
19.09.2014 09:10 15,3 C 94 % 1018,7 hPa 0,0 l/m 0,0 km/h (0 Bft) S-SO 157 14,3 C 22,8 C 0,0 km/h (0 Bft)
19.09.2014 09:20 14,7 C 94 % 1018,7 hPa 0,0 l/m 0,0 km/h (0 Bft) S-SO 157 13,7 C 22,8 C 0,0 km/h (0 Bft)
19.09.2014 09:30 14,9 C 94 % 1018,9 hPa 0,0 l/m 0,0 km/h (0 Bft) S-SO 157 13,9 C 22,8 C 0,0 km/h (0 Bft)
19.09.2014 09:40 15,5 C 94 % 1018,9 hPa 0,0 l/m 0,0 km/h (0 Bft) S-SO 157 14,5 C 22,8 C 0,0 km/h (0 Bft)
19.09.2014 09:50 15,9 C 94 % 1019,0 hPa 0,0 l/m 0,0 km/h (0 Bft) S-SO 157 14,9 C 22,8 C 0,0 km/h (0 Bft)
19.09.2014 10:00 16,3 C 93 % 1019,0 hPa 0,0 l/m 0,0 km/h (0 Bft) S-SO 157 15,2 C 22,8 C 0,0 km/h (0 Bft)
19.09.2014 10:10 17,5 C 92 % 1019,2 hPa 0,0 l/m 0,0 km/h (0 Bft) S-SO 157 16,2 C 22,8 C 0,0 km/h (0 Bft)
19.09.2014 10:20 19,1 C 90 % 1019,2 hPa 0,0 l/m 0,0 km/h (0 Bft) S-SO 157 17,4 C 22,8 C 0,0 km/h (0 Bft)
19.09.2014 10:30 19,8 C 87 % 1019,1 hPa 0,0 l/m 0,0 km/h (0 Bft) S-SO 157 17,6 C 22,8 C 0,0 km/h (0 Bft)
19.09.2014 10:40 20,7 C 85 % 1019,1 hPa 0,0 l/m 0,0 km/h (0 Bft) S-SO 157 18,1 C 22,8 C 0,0 km/h (0 Bft)
19.09.2014 10:50 20,0 C 86 % 1019,4 hPa 0,0 l/m 0,0 km/h (0 Bft) S-SO 157 17,6 C 22,8 C 0,0 km/h (0 Bft)
19.09.2014 11:00 21,2 C 86 % 1019,4 hPa 0,0 l/m 0,0 km/h (0 Bft) S-SO 157 18,8 C 22,8 C 0,0 km/h (0 Bft)
19.09.2014 11:10 22,1 C 84 % 1019,1 hPa 0,0 l/m 0,0 km/h (0 Bft) S-SO 157 19,3 C 22,8 C 0,0 km/h (0 Bft)
19.09.2014 11:20 21,6 C 83 % 1019,1 hPa 0,0 l/m 0,0 km/h (0 Bft) S-SO 157 18,6 C 22,8 C 0,0 km/h (0 Bft)
19.09.2014 11:30 22,0 C 85 % 1019,1 hPa 0,0 l/m 0,0 km/h (0 Bft) S-SO 157 19,4 C 22,8 C 0,0 km/h (0 Bft)
19.09.2014 11:40 23,6 C 75 % 1019,1 hPa 0,0 l/m 0,0 km/h (0 Bft) S-SO 157 18,9 C 22,8 C 0,0 km/h (0 Bft)
19.09.2014 11:50 24,0 C 69 % 1019,1 hPa 0,0 l/m 0,0 km/h (0 Bft) S-SO 157 18,0 C 22,8 C 0,0 km/h (0 Bft)
19.09.2014 12:00 23,0 C 64 % 1019,1 hPa 0,0 l/m 0,0 km/h (0 Bft) S-SO 157 15,8 C 22,8 C 0,0 km/h (0 Bft)
19.09.2014 12:10 25,0 C 65 % 1019,2 hPa 0,0 l/m 0,0 km/h (0 Bft) S-SO 157 17,9 C 22,8 C 0,0 km/h (0 Bft)
19.09.2014 12:20 25,2 C 50 % 1019,2 hPa 0,0 l/m 0,0 km/h (0 Bft) S-SO 157 14,0 C 22,8 C 0,0 km/h (0 Bft)
19.09.2014 12:30 25,1 C 48 % 1019,1 hPa 0,0 l/m 0,0 km/h (0 Bft) S-SO 157 13,3 C 22,8 C 0,0 km/h (0 Bft)
19.09.2014 12:40 24,2 C 50 % 1019,1 hPa 0,0 l/m 0,0 km/h (0 Bft) S-SO 157 13,1 C 22,8 C 0,0 km/h (0 Bft)
19.09.2014 12:50 24,1 C 48 % 1019,1 hPa 0,0 l/m 0,0 km/h (0 Bft) S-SO 157 12,4 C 22,8 C 0,0 km/h (0 Bft)
19.09.2014 13:00 25,5 C 47 % 1019,1 hPa 0,0 l/m 0,0 km/h (0 Bft) S-SO 157 13,3 C 22,8 C 0,0 km/h (0 Bft)
19.09.2014 13:10 25,9 C 46 % 1019,2 hPa 0,0 l/m 0,0 km/h (0 Bft) S-SO 157 13,4 C 22,8 C 0,0 km/h (0 Bft)
19.09.2014 13:20 25,3 C 43 % 1019,2 hPa 0,0 l/m 0,0 km/h (0 Bft) S-SO 157 11,8 C 22,8 C 0,0 km/h (0 Bft)
19.09.2014 13:30 25,2 C 43 % 1019,2 hPa 0,0 l/m 0,0 km/h (0 Bft) S-SO 157 11,7 C 22,8 C 0,0 km/h (0 Bft)
19.09.2014 13:40 24,7 C 44 % 1019,2 hPa 0,0 l/m 0,0 km/h (0 Bft) S-SO 157 11,6 C 22,8 C 0,0 km/h (0 Bft)
19.09.2014 13:49 24,9 C 45 % 1019,4 hPa 0,0 l/m 0,0 km/h (0 Bft) S-SO 157 12,1 C 22,8 C 0,0 km/h (0 Bft)
19.09.2014 13:50 24,9 C 45 % 1019,4 hPa 0,0 l/m 0,0 km/h (0 Bft) S-SO 157 12,1 C 22,8 C 0,0 km/h (0 Bft)
19.09.2014 14:00 24,9 C 46 % 1019,4 hPa 0,0 l/m 0,0 km/h (0 Bft) S-SO 157 12,5 C 22,8 C 0,0 km/h (0 Bft)
19.09.2014 14:10 24,4 C 45 % 1019,3 hPa 0,0 l/m 0,0 km/h (0 Bft) S-SO 157 11,7 C 22,8 C 0,0 km/h (0 Bft)
19.09.2014 14:20 24,5 C 48 % 1019,3 hPa 0,0 l/m 0,0 km/h (0 Bft) S-SO 157 12,8 C 22,8 C 0,0 km/h (0 Bft)
19.09.2014 14:30 24,3 C 49 % 1019,4 hPa 0,0 l/m 0,0 km/h (0 Bft) S-SO 157 12,9 C 22,8 C 0,0 km/h (0 Bft)
19.09.2014 14:40 24,2 C 49 % 1019,4 hPa 0,0 l/m 0,0 km/h (0 Bft) S-SO 157 12,8 C 22,8 C 0,0 km/h (0 Bft)
19.09.2014 14:50 23,9 C 50 % 1019,4 hPa 0,0 l/m 0,0 km/h (0 Bft) S-SO 157 12,8 C 22,8 C 0,0 km/h (0 Bft)
19.09.2014 15:00 23,1 C 55 % 1019,4 hPa 0,0 l/m 0,0 km/h (0 Bft) S-SO 157 13,6 C 22,8 C 0,0 km/h (0 Bft)
19.09.2014 15:10 24,9 C 52 % 1019,2 hPa 0,0 l/m 0,0 km/h (0 Bft) S-SO 157 14,4 C 22,8 C 0,0 km/h (0 Bft)
19.09.2014 15:20 25,7 C 49 % 1019,2 hPa 0,0 l/m 0,0 km/h (0 Bft) S-SO 157 14,2 C 22,8 C 0,0 km/h (0 Bft)
19.09.2014 15:30 25,5 C 49 % 1019,0 hPa 0,0 l/m 0,0 km/h (0 Bft) S-SO 157 14,0 C 22,8 C 0,0 km/h (0 Bft)
19.09.2014 15:40 25,6 C 48 % 1019,0 hPa 0,0 l/m 0,0 km/h (0 Bft) S-SO 157 13,8 C 22,8 C 0,0 km/h (0 Bft)
19.09.2014 15:50 25,3 C 48 % 1019,0 hPa 0,0 l/m 0,0 km/h (0 Bft) S-SO 157 13,5 C 22,8 C 0,0 km/h (0 Bft)
19.09.2014 16:00 23,2 C 52 % 1019,0 hPa 0,0 l/m 0,0 km/h (0 Bft) S-SO 157 12,8 C 22,8 C 0,0 km/h (0 Bft)
19.09.2014 16:10 23,2 C 57 % 1018,9 hPa 0,0 l/m 0,0 km/h (0 Bft) S-SO 157 14,2 C 22,8 C 0,0 km/h (0 Bft)
19.09.2014 16:20 23,5 C 55 % 1018,9 hPa 0,0 l/m 0,0 km/h (0 Bft) S-SO 157 13,9 C 22,8 C 0,0 km/h (0 Bft)
19.09.2014 16:30 23,3 C 56 % 1018,9 hPa 0,0 l/m 0,0 km/h (0 Bft) S-SO 157 14,0 C 22,8 C 0,0 km/h (0 Bft)
19.09.2014 16:40 23,8 C 51 % 1018,9 hPa 0,0 l/m 0,0 km/h (0 Bft) S-SO 157 13,0 C 22,8 C 0,0 km/h (0 Bft)
19.09.2014 16:50 22,8 C 56 % 1019,0 hPa 0,0 l/m 0,0 km/h (0 Bft) S-SO 157 13,6 C 22,8 C 0,0 km/h (0 Bft)
19.09.2014 17:00 22,5 C 59 % 1019,0 hPa 0,0 l/m 0,0 km/h (0 Bft) S-SO 157 14,1 C 22,8 C 0,0 km/h (0 Bft)
19.09.2014 17:10 22,9 C 59 % 1018,8 hPa 0,0 l/m 0,0 km/h (0 Bft) S-SO 157 14,5 C 22,8 C 0,0 km/h (0 Bft)
19.09.2014 17:20 22,1 C 61 % 1018,8 hPa 0,0 l/m 0,0 km/h (0 Bft) S-SO 157 14,2 C 22,8 C 0,0 km/h (0 Bft)
19.09.2014 17:30 21,2 C 61 % 1018,8 hPa 0,0 l/m 0,0 km/h (0 Bft) S-SO 157 13,4 C 22,8 C 0,0 km/h (0 Bft)
19.09.2014 17:40 20,3 C 66 % 1018,8 hPa 0,0 l/m 0,0 km/h (0 Bft) S-SO 157 13,7 C 22,8 C 0,0 km/h (0 Bft)
19.09.2014 17:48 19,8 C 70 % 1018,6 hPa 0,0 l/m 0,0 km/h (0 Bft) S-SO 157 14,2 C 22,8 C 0,0 km/h (0 Bft)
19.09.2014 17:50 19,8 C 70 % 1018,6 hPa 0,0 l/m 0,0 km/h (0 Bft) S-SO 157 14,2 C 22,8 C 0,0 km/h (0 Bft)
19.09.2014 18:00 19,4 C 74 % 1018,6 hPa 0,0 l/m 0,0 km/h (0 Bft) S-SO 157 14,6 C 22,8 C 0,0 km/h (0 Bft)
19.09.2014 18:10 18,8 C 77 % 1018,8 hPa 0,0 l/m 0,0 km/h (0 Bft) S-SO 157 14,7 C 22,8 C 0,0 km/h (0 Bft)
19.09.2014 18:20 17,7 C 81 % 1018,8 hPa 0,0 l/m 0,0 km/h (0 Bft) S-SO 157 14,4 C 22,8 C 0,0 km/h (0 Bft)
19.09.2014 18:30 15,6 C 79 % 1019,4 hPa 0,0 l/m 0,0 km/h (0 Bft) S-SO 157 12,0 C 22,8 C 0,0 km/h (0 Bft)
19.09.2014 18:40 15,0 C 86 % 1019,4 hPa 0,0 l/m 0,0 km/h (0 Bft) S-SO 157 12,7 C 22,8 C 0,0 km/h (0 Bft)
19.09.2014 18:50 14,9 C 87 % 1019,4 hPa 0,0 l/m 0,0 km/h (0 Bft) S-SO 157 12,8 C 22,8 C 0,0 km/h (0 Bft)
19.09.2014 19:00 14,8 C 88 % 1019,4 hPa 0,0 l/m 0,0 km/h (0 Bft) S-SO 157 12,8 C 22,8 C 0,0 km/h (0 Bft)
19.09.2014 19:10 14,7 C 89 % 1019,1 hPa 0,0 l/m 0,0 km/h (0 Bft) S-SO 157 12,9 C 22,8 C 0,0 km/h (0 Bft)
19.09.2014 19:20 14,8 C 89 % 1019,1 hPa 0,0 l/m 0,0 km/h (0 Bft) S-SO 157 13,0 C 22,8 C 0,0 km/h (0 Bft)
19.09.2014 19:30 15,0 C 88 % 1019,6 hPa 0,0 l/m 0,0 km/h (0 Bft) S-SO 157 13,0 C 22,8 C 0,0 km/h (0 Bft)
19.09.2014 19:40 14,8 C 89 % 1019,6 hPa 0,0 l/m 0,0 km/h (0 Bft) S-SO 157 13,0 C 22,8 C 0,0 km/h (0 Bft)
19.09.2014 19:50 14,5 C 89 % 1019,6 hPa 0,0 l/m 0,0 km/h (0 Bft) S-SO 157 12,7 C 22,8 C 0,0 km/h (0 Bft)
19.09.2014 20:00 14,7 C 89 % 1019,6 hPa 0,0 l/m 0,0 km/h (0 Bft) S-SO 157 12,9 C 22,8 C 0,0 km/h (0 Bft)
19.09.2014 20:10 14,3 C 89 % 1019,5 hPa 0,0 l/m 0,0 km/h (0 Bft) S-SO 157 12,5 C 22,8 C 0,0 km/h (0 Bft)
19.09.2014 20:20 14,2 C 90 % 1019,5 hPa 0,0 l/m 0,0 km/h (0 Bft) S-SO 157 12,6 C 22,8 C 0,0 km/h (0 Bft)
19.09.2014 20:30 14,3 C 91 % 1019,6 hPa 0,0 l/m 0,0 km/h (0 Bft) S-SO 157 12,8 C 22,8 C 0,0 km/h (0 Bft)
19.09.2014 20:40 14,6 C 91 % 1019,6 hPa 0,0 l/m 0,0 km/h (0 Bft) S-SO 157 13,1 C 22,8 C 0,0 km/h (0 Bft)
19.09.2014 20:50 14,4 C 91 % 1019,1 hPa 0,0 l/m 0,0 km/h (0 Bft) S-SO 157 12,9 C 22,8 C 0,0 km/h (0 Bft)
19.09.2014 21:00 13,8 C 92 % 1019,1 hPa 0,0 l/m 0,0 km/h (0 Bft) S-SO 157 12,5 C 22,8 C 0,0 km/h (0 Bft)
19.09.2014 21:10 13,9 C 92 % 1019,4 hPa 0,0 l/m 0,0 km/h (0 Bft) S-SO 157 12,6 C 22,8 C 0,0 km/h (0 Bft)
19.09.2014 21:20 13,6 C 92 % 1019,4 hPa 0,0 l/m 0,0 km/h (0 Bft) S-SO 157 12,3 C 22,8 C 0,0 km/h (0 Bft)
19.09.2014 21:30 13,1 C 92 % 1019,4 hPa 0,0 l/m 0,0 km/h (0 Bft) S-SO 157 11,8 C 22,8 C 0,0 km/h (0 Bft)
19.09.2014 21:40 13,2 C 92 % 1019,4 hPa 0,0 l/m 0,0 km/h (0 Bft) S-SO 157 11,9 C 22,8 C 0,0 km/h (0 Bft)
19.09.2014 21:48 12,7 C 93 % 1019,5 hPa 0,0 l/m 0,0 km/h (0 Bft) S-SO 157 11,6 C 22,8 C 0,0 km/h (0 Bft)
19.09.2014 21:50 12,7 C 93 % 1019,5 hPa 0,0 l/m 0,0 km/h (0 Bft) S-SO 157 11,6 C 22,8 C 0,0 km/h (0 Bft)
19.09.2014 22:00 12,8 C 93 % 1019,5 hPa 0,0 l/m 0,0 km/h (0 Bft) S-SO 157 11,7 C 22,8 C 0,0 km/h (0 Bft)
19.09.2014 22:10 12,5 C 93 % 1019,8 hPa 0,0 l/m 0,0 km/h (0 Bft) S-SO 157 11,4 C 22,8 C 0,0 km/h (0 Bft)
19.09.2014 22:20 12,3 C 93 % 1019,8 hPa 0,0 l/m 0,0 km/h (0 Bft) S-SO 157 11,2 C 22,8 C 0,0 km/h (0 Bft)
19.09.2014 22:30 12,5 C 93 % 1019,8 hPa 0,0 l/m 0,0 km/h (0 Bft) S-SO 157 11,4 C 22,8 C 0,0 km/h (0 Bft)
19.09.2014 22:40 12,4 C 94 % 1019,8 hPa 0,0 l/m 0,0 km/h (0 Bft) S-SO 157 11,5 C 22,8 C 0,0 km/h (0 Bft)
19.09.2014 22:50 12,5 C 94 % 1019,8 hPa 0,0 l/m 0,0 km/h (0 Bft) S-SO 157 11,6 C 22,8 C 0,0 km/h (0 Bft)
19.09.2014 23:00 12,3 C 94 % 1019,8 hPa 0,0 l/m 0,0 km/h (0 Bft) S-SO 157 11,4 C 22,8 C 0,0 km/h (0 Bft)
19.09.2014 23:10 12,0 C 94 % 1019,7 hPa 0,0 l/m 0,0 km/h (0 Bft) S-SO 157 11,1 C 22,8 C 0,0 km/h (0 Bft)
19.09.2014 23:20 11,9 C 94 % 1019,7 hPa 0,0 l/m 0,0 km/h (0 Bft) S-SO 157 11,0 C 22,8 C 0,0 km/h (0 Bft)
19.09.2014 23:30 12,1 C 94 % 1019,8 hPa 0,0 l/m 0,0 km/h (0 Bft) S-SO 157 11,2 C 22,8 C 0,0 km/h (0 Bft)
19.09.2014 23:40 11,9 C 94 % 1019,8 hPa 0,0 l/m 0,0 km/h (0 Bft) S-SO 157 11,0 C 22,8 C 0,0 km/h (0 Bft)
19.09.2014 23:50 11,8 C 94 % 1019,8 hPa 0,0 l/m 0,0 km/h (0 Bft) S-SO 157 10,9 C 22,8 C 0,0 km/h (0 Bft)
_ Min-Zeit 06:10 13:30 04:20 - 23:50 - - 05:00 23:50 23:50
Minimum _ 10,2 C 43 % 1017,2 hPa - 0,0 km/h (0 Bft) - - 9,5 C 22,8 C 0,0 km/h (0 Bft)
_ Max-Zeit 13:10 08:40 23:50 23:50 23:50 - - 11:30 23:50 23:50
Maximum _ 25,9 C 96 % 1019,8 hPa 0,0 l/m 0,0 km/h
S-SO (0 Bft)
- - 19,4 C 22,8 C 0,0 km/h
S-SO (0 Bft)
Durchschnitt _ 16,1 C 82 % 1018,7 hPa #0,0 l/m 0,0 km/h (0 Bft) - - - 12,6 C 22,8 C 0,0 km/h (0 Bft)